UAL2638 KLAX-KSFO

Flight info

Callsign UAL2638
Flight time 0h 54m
Altitude 36000
Route SUMMR2 STOKD SERFR SERFR4
Aircraft A319/M-SDE3FGHIRWY/LB1

Departure

Time 2026-05-04 23:47
Airport Los Angeles International Airport (KLAX)

Arrival

Time 2026-05-05 00:42
Airport San Francisco International Airport (KSFO)
Time Latitude Longitude Altitude Speed Heading
2026-05-04 23:07 33.94205 -118.39778 114 ft 0 kts 83°
2026-05-04 23:34 33.94203 -118.39798 95 ft 3 kts 83°
2026-05-04 23:34 33.94202 -118.39821 95 ft 3 kts 114°
2026-05-04 23:34 33.94213 -118.39839 95 ft 3 kts 158°
2026-05-04 23:34 33.94221 -118.39843 94 ft 0 kts 175°
2026-05-04 23:39 33.94219 -118.39842 96 ft 1 kts 175°
2026-05-04 23:39 33.94209 -118.39841 96 ft 2 kts 175°
2026-05-04 23:40 33.94193 -118.39840 98 ft 3 kts 174°
2026-05-04 23:40 33.94171 -118.39837 96 ft 4 kts 174°
2026-05-04 23:40 33.94143 -118.39833 95 ft 5 kts 173°
2026-05-04 23:40 33.94107 -118.39828 95 ft 6 kts 173°
2026-05-04 23:41 33.94063 -118.39825 96 ft 6 kts 179°
2026-05-04 23:41 33.94016 -118.39823 98 ft 7 kts 176°
2026-05-04 23:41 33.93963 -118.39814 97 ft 9 kts 167°
2026-05-04 23:41 33.93927 -118.39796 101 ft 3 kts 143°
2026-05-04 23:42 33.93912 -118.39771 103 ft 8 kts 116°
2026-05-04 23:42 33.93911 -118.39676 102 ft 13 kts 83°
2026-05-04 23:42 33.93923 -118.39559 103 ft 15 kts 83°
2026-05-04 23:42 33.93939 -118.39423 102 ft 17 kts 81°
2026-05-04 23:43 33.93955 -118.39269 101 ft 19 kts 84°
2026-05-04 23:43 33.93969 -118.39108 100 ft 19 kts 82°
2026-05-04 23:43 33.93986 -118.38945 102 ft 20 kts 83°
2026-05-04 23:43 33.94004 -118.38774 102 ft 21 kts 83°
2026-05-04 23:44 33.94022 -118.38601 103 ft 21 kts 83°
2026-05-04 23:44 33.94039 -118.38426 103 ft 21 kts 83°
2026-05-04 23:44 33.94058 -118.38250 103 ft 22 kts 83°
2026-05-04 23:44 33.94076 -118.38077 103 ft 16 kts 83°
2026-05-04 23:45 33.94024 -118.37997 108 ft 12 kts 180°
2026-05-04 23:45 33.93982 -118.38057 108 ft 11 kts 262°
2026-05-04 23:45 33.93976 -118.38110 110 ft 0 kts 263°
2026-05-04 23:46 33.93974 -118.38128 110 ft 7 kts 263°
2026-05-04 23:46 33.93944 -118.38412 110 ft 63 kts 263°
2026-05-04 23:47 33.93867 -118.39164 104 ft 117 kts 263°
2026-05-04 23:47 33.93751 -118.40315 211 ft 153 kts 263°
2026-05-04 23:47 33.93608 -118.41580 847 ft 153 kts 262°
2026-05-04 23:47 33.93464 -118.42876 1494 ft 159 kts 261°
2026-05-04 23:48 33.93334 -118.44229 2110 ft 166 kts 264°
2026-05-04 23:48 33.93203 -118.45699 2461 ft 187 kts 261°
2026-05-04 23:48 33.93050 -118.47341 2758 ft 212 kts 263°
2026-05-04 23:48 33.92886 -118.49256 3245 ft 237 kts 263°
2026-05-04 23:49 33.92717 -118.51287 4026 ft 248 kts 263°
2026-05-04 23:49 33.92547 -118.53378 4974 ft 253 kts 264°
2026-05-04 23:49 33.92375 -118.55504 5926 ft 257 kts 264°
2026-05-04 23:49 33.92199 -118.57666 6850 ft 261 kts 264°
2026-05-04 23:50 33.92019 -118.59856 7757 ft 264 kts 263°
2026-05-04 23:50 33.91836 -118.62073 8661 ft 269 kts 263°
2026-05-04 23:50 33.91769 -118.64340 9544 ft 273 kts 268°
2026-05-04 23:50 33.91765 -118.66646 10310 ft 282 kts 268°
2026-05-04 23:51 33.91755 -118.69103 10617 ft 304 kts 268°
2026-05-04 23:51 33.91743 -118.71687 11217 ft 312 kts 268°
2026-05-04 23:51 33.91732 -118.74284 11954 ft 316 kts 268°
2026-05-04 23:51 33.91721 -118.76943 12721 ft 319 kts 268°
2026-05-04 23:52 33.91709 -118.79629 13489 ft 322 kts 268°
2026-05-04 23:52 33.91696 -118.82344 14192 ft 326 kts 268°
2026-05-04 23:52 33.91702 -118.85078 14870 ft 328 kts 269°
2026-05-04 23:52 33.91765 -118.87840 15555 ft 331 kts 269°
2026-05-04 23:53 33.91859 -118.90614 16232 ft 333 kts 270°
2026-05-04 23:53 33.91962 -118.93412 16910 ft 336 kts 269°
2026-05-04 23:53 33.92063 -118.96231 17586 ft 338 kts 269°
2026-05-04 23:53 33.92191 -118.99065 18251 ft 342 kts 273°
2026-05-04 23:54 33.92715 -119.01889 18832 ft 349 kts 284°
2026-05-04 23:54 33.93739 -119.04568 19448 ft 357 kts 295°
2026-05-04 23:54 33.95058 -119.07110 20082 ft 358 kts 296°
2026-05-04 23:54 33.96397 -119.09689 20727 ft 359 kts 296°
2026-05-04 23:55 33.97701 -119.12213 21332 ft 360 kts 295°
2026-05-04 23:55 33.99023 -119.14781 21944 ft 361 kts 295°
2026-05-04 23:55 34.02193 -119.19591 23126 ft 379 kts 310°
2026-05-04 23:56 34.04338 -119.21525 23692 ft 387 kts 316°
2026-05-04 23:56 34.06542 -119.23402 24147 ft 390 kts 315°
2026-05-04 23:56 34.08765 -119.25304 24583 ft 393 kts 315°
2026-05-04 23:56 34.10997 -119.27223 25005 ft 396 kts 315°
2026-05-04 23:57 34.13244 -119.29161 25412 ft 399 kts 314°
2026-05-04 23:57 34.15508 -119.31116 25823 ft 402 kts 314°
2026-05-04 23:57 34.17787 -119.33082 26231 ft 404 kts 314°
2026-05-04 23:57 34.20089 -119.35066 26643 ft 407 kts 314°
2026-05-04 23:58 34.22403 -119.37061 27032 ft 410 kts 314°
2026-05-04 23:58 34.24735 -119.39074 27419 ft 413 kts 314°
2026-05-04 23:58 34.27080 -119.41102 27816 ft 416 kts 314°
2026-05-04 23:58 34.29441 -119.43144 28200 ft 419 kts 313°
2026-05-04 23:59 34.31819 -119.45202 28582 ft 422 kts 313°
2026-05-04 23:59 34.34209 -119.47272 28975 ft 425 kts 313°
2026-05-04 23:59 34.36619 -119.49363 29358 ft 427 kts 313°
2026-05-04 23:59 34.39044 -119.51466 29727 ft 430 kts 313°
2026-05-05 00:00 34.41405 -119.53676 30082 ft 425 kts 307°
2026-05-05 00:00 34.42105 -119.54460 30187 ft 422 kts 304°
2026-05-05 00:00 34.45562 -119.58706 30697 ft 424 kts 303°
2026-05-05 00:00 34.47636 -119.61262 30984 ft 428 kts 303°
2026-05-05 00:01 34.49720 -119.63831 31197 ft 429 kts 303°
2026-05-05 00:01 34.51826 -119.66431 31447 ft 432 kts 303°
2026-05-05 00:01 34.53943 -119.69045 31719 ft 435 kts 303°
2026-05-05 00:01 34.56060 -119.71659 32011 ft 438 kts 304°
2026-05-05 00:02 34.58208 -119.74306 32293 ft 440 kts 303°
2026-05-05 00:02 34.60358 -119.76956 32685 ft 439 kts 304°
2026-05-05 00:02 34.62499 -119.79596 33048 ft 440 kts 303°
2026-05-05 00:02 34.64646 -119.82246 33438 ft 440 kts 303°
2026-05-05 00:03 34.66790 -119.84893 33836 ft 440 kts 303°
2026-05-05 00:03 34.68940 -119.87553 34188 ft 440 kts 303°
2026-05-05 00:03 34.71086 -119.90212 34540 ft 440 kts 304°
2026-05-05 00:03 34.73229 -119.92873 34877 ft 440 kts 304°
2026-05-05 00:04 34.75369 -119.95533 35183 ft 441 kts 304°
2026-05-05 00:04 34.77515 -119.98202 35479 ft 441 kts 304°
2026-05-05 00:04 34.79655 -120.00866 35774 ft 441 kts 304°
2026-05-05 00:04 34.81803 -120.03542 35996 ft 442 kts 304°
2026-05-05 00:05 34.83943 -120.06204 36044 ft 438 kts 304°
2026-05-05 00:05 34.88185 -120.11481 36049 ft 435 kts 304°
2026-05-05 00:06 34.92405 -120.16759 36055 ft 435 kts 304°
2026-05-05 00:06 34.96599 -120.22005 36055 ft 435 kts 305°
2026-05-05 00:07 35.00819 -120.27287 36057 ft 434 kts 305°
2026-05-05 00:07 35.05035 -120.32579 36062 ft 435 kts 305°
2026-05-05 00:08 35.09256 -120.37869 36066 ft 436 kts 306°
2026-05-05 00:08 35.13676 -120.42976 36062 ft 439 kts 309°
2026-05-05 00:09 35.18237 -120.47950 36055 ft 439 kts 309°
2026-05-05 00:09 35.22781 -120.52956 36044 ft 439 kts 309°
2026-05-05 00:10 35.27281 -120.58003 36056 ft 439 kts 309°
2026-05-05 00:10 35.31775 -120.63082 36057 ft 439 kts 309°
2026-05-05 00:11 35.36260 -120.68146 36060 ft 438 kts 309°
2026-05-05 00:11 35.40748 -120.73210 36065 ft 438 kts 310°
2026-05-05 00:12 35.45231 -120.78276 36064 ft 437 kts 310°
2026-05-05 00:12 35.49833 -120.83199 36071 ft 443 kts 316°
2026-05-05 00:13 35.54752 -120.87762 36070 ft 443 kts 316°
2026-05-05 00:13 35.59676 -120.92327 36037 ft 444 kts 317°
2026-05-05 00:13 35.62139 -120.94607 35798 ft 442 kts 317°
2026-05-05 00:14 35.64586 -120.96876 35562 ft 440 kts 317°
2026-05-05 00:14 35.67027 -120.99140 35330 ft 438 kts 317°
2026-05-05 00:14 35.69449 -121.01391 35099 ft 435 kts 317°
2026-05-05 00:14 35.71854 -121.03635 34870 ft 433 kts 317°
2026-05-05 00:15 35.74245 -121.05871 34643 ft 430 kts 317°
2026-05-05 00:15 35.75819 -121.07342 34500 ft 429 kts 317°
2026-05-05 00:15 35.78193 -121.09563 34272 ft 427 kts 317°
2026-05-05 00:15 35.80546 -121.11765 34037 ft 424 kts 317°
2026-05-05 00:16 35.82892 -121.13960 33777 ft 422 kts 318°
2026-05-05 00:16 35.85973 -121.16844 33430 ft 420 kts 319°
2026-05-05 00:16 35.88299 -121.19021 33164 ft 417 kts 319°
2026-05-05 00:16 35.89858 -121.20483 32996 ft 416 kts 319°
2026-05-05 00:17 35.92157 -121.22643 32735 ft 414 kts 319°
2026-05-05 00:17 35.94436 -121.24783 32461 ft 409 kts 320°
2026-05-05 00:17 35.96696 -121.26902 32034 ft 407 kts 320°
2026-05-05 00:17 35.98939 -121.29010 31621 ft 405 kts 320°
2026-05-05 00:18 36.01171 -121.31113 31199 ft 402 kts 321°
2026-05-05 00:18 36.03392 -121.33208 30791 ft 400 kts 321°
2026-05-05 00:18 36.05563 -121.35260 30399 ft 397 kts 321°
2026-05-05 00:18 36.07812 -121.37229 29973 ft 396 kts 327°
2026-05-05 00:19 36.10136 -121.39032 29573 ft 392 kts 327°
2026-05-05 00:19 36.12464 -121.40842 29188 ft 388 kts 327°
2026-05-05 00:19 36.14709 -121.42593 28825 ft 385 kts 327°
2026-05-05 00:19 36.16960 -121.44349 28473 ft 381 kts 327°
2026-05-05 00:20 36.19191 -121.46093 28106 ft 378 kts 328°
2026-05-05 00:20 36.21408 -121.47826 27739 ft 375 kts 328°
2026-05-05 00:20 36.23603 -121.49542 27372 ft 372 kts 328°
2026-05-05 00:20 36.25782 -121.51246 27007 ft 369 kts 328°
2026-05-05 00:21 36.27943 -121.52937 26628 ft 366 kts 328°
2026-05-05 00:21 36.30091 -121.54620 26261 ft 363 kts 329°
2026-05-05 00:21 36.32213 -121.56286 25880 ft 361 kts 329°
2026-05-05 00:21 36.34331 -121.57949 25482 ft 359 kts 329°
2026-05-05 00:22 36.36433 -121.59600 25104 ft 357 kts 330°
2026-05-05 00:22 36.38530 -121.61249 24693 ft 356 kts 330°
2026-05-05 00:22 36.40615 -121.62891 24294 ft 354 kts 330°
2026-05-05 00:22 36.42693 -121.64529 23894 ft 353 kts 330°
2026-05-05 00:23 36.44763 -121.66155 23462 ft 352 kts 330°
2026-05-05 00:23 36.46828 -121.67779 23032 ft 349 kts 330°
2026-05-05 00:23 36.48871 -121.69388 22631 ft 346 kts 330°
2026-05-05 00:23 36.50886 -121.70979 22242 ft 342 kts 330°
2026-05-05 00:24 36.52890 -121.72563 21839 ft 340 kts 330°
2026-05-05 00:24 36.54878 -121.74134 21445 ft 337 kts 330°
2026-05-05 00:24 36.56849 -121.75692 21060 ft 335 kts 330°
2026-05-05 00:24 36.58805 -121.77241 20675 ft 332 kts 330°
2026-05-05 00:25 36.60750 -121.78782 20285 ft 330 kts 330°
2026-05-05 00:25 36.62682 -121.80315 19902 ft 329 kts 330°
2026-05-05 00:25 36.64608 -121.81839 19524 ft 327 kts 330°
2026-05-05 00:25 36.66522 -121.83352 19140 ft 325 kts 330°
2026-05-05 00:26 36.68427 -121.84865 18754 ft 324 kts 330°
2026-05-05 00:26 36.70323 -121.86375 18360 ft 323 kts 329°
2026-05-05 00:26 36.72218 -121.87886 17888 ft 323 kts 329°
2026-05-05 00:26 36.74178 -121.89193 17504 ft 317 kts 340°
2026-05-05 00:27 36.76265 -121.90017 17137 ft 312 kts 349°
2026-05-05 00:27 36.78376 -121.90587 16767 ft 309 kts 349°
2026-05-05 00:27 36.80471 -121.91169 16394 ft 307 kts 349°
2026-05-05 00:27 36.82546 -121.91755 16028 ft 305 kts 349°
2026-05-05 00:28 36.84610 -121.92337 15673 ft 303 kts 349°
2026-05-05 00:28 36.86657 -121.92913 15313 ft 301 kts 349°
2026-05-05 00:28 36.88693 -121.93483 14963 ft 299 kts 348°
2026-05-05 00:28 36.90720 -121.94050 14606 ft 297 kts 348°
2026-05-05 00:29 36.92733 -121.94613 14253 ft 296 kts 348°
2026-05-05 00:29 36.94739 -121.95170 13904 ft 295 kts 348°
2026-05-05 00:29 36.96718 -121.95807 13539 ft 293 kts 345°
2026-05-05 00:29 36.98664 -121.96540 13190 ft 291 kts 343°
2026-05-05 00:30 37.00587 -121.97311 12852 ft 289 kts 343°
2026-05-05 00:30 37.02494 -121.98089 12513 ft 287 kts 343°
2026-05-05 00:30 37.04383 -121.98856 12176 ft 285 kts 343°
2026-05-05 00:30 37.06262 -121.99610 11842 ft 283 kts 343°
2026-05-05 00:31 37.08137 -122.00352 11513 ft 282 kts 343°
2026-05-05 00:31 37.10007 -122.01086 11174 ft 281 kts 343°
2026-05-05 00:31 37.11870 -122.01815 10838 ft 280 kts 343°
2026-05-05 00:31 37.13728 -122.02539 10507 ft 280 kts 343°
2026-05-05 00:32 37.15584 -122.03262 10169 ft 279 kts 343°
2026-05-05 00:32 37.17440 -122.03986 9821 ft 279 kts 343°
2026-05-05 00:32 37.19281 -122.04709 9475 ft 278 kts 343°
2026-05-05 00:32 37.21129 -122.05437 9132 ft 277 kts 343°
2026-05-05 00:33 37.22965 -122.06157 8803 ft 276 kts 343°
2026-05-05 00:33 37.24791 -122.06873 8473 ft 275 kts 343°
2026-05-05 00:33 37.26616 -122.07590 8138 ft 274 kts 343°
2026-05-05 00:33 37.28434 -122.08304 7796 ft 274 kts 343°
2026-05-05 00:34 37.30262 -122.09022 7431 ft 276 kts 343°
2026-05-05 00:34 37.32096 -122.09744 7064 ft 277 kts 344°
2026-05-05 00:34 37.33939 -122.10471 6701 ft 278 kts 344°
2026-05-05 00:34 37.35787 -122.11202 6329 ft 280 kts 343°
2026-05-05 00:35 37.37654 -122.11938 5941 ft 282 kts 344°
2026-05-05 00:35 37.39534 -122.12627 5606 ft 281 kts 345°
2026-05-05 00:35 37.41410 -122.13270 5283 ft 278 kts 345°
2026-05-05 00:35 37.43277 -122.13898 4952 ft 276 kts 345°
2026-05-05 00:36 37.45106 -122.14511 4620 ft 269 kts 345°
2026-05-05 00:36 37.46893 -122.15101 4289 ft 262 kts 345°
2026-05-05 00:36 37.48640 -122.15670 3972 ft 255 kts 344°
2026-05-05 00:36 37.50322 -122.16217 3667 ft 245 kts 343°
2026-05-05 00:37 37.51938 -122.16745 3390 ft 235 kts 342°
2026-05-05 00:37 37.53335 -122.17614 3243 ft 215 kts 320°
2026-05-05 00:37 37.54295 -122.18970 3017 ft 203 kts 298°
2026-05-05 00:37 37.54953 -122.20516 2774 ft 198 kts 296°
2026-05-05 00:38 37.55595 -122.22034 2537 ft 193 kts 296°
2026-05-05 00:38 37.56208 -122.23487 2263 ft 182 kts 296°
2026-05-05 00:38 37.56776 -122.24834 2022 ft 166 kts 296°
2026-05-05 00:38 37.57287 -122.26043 1809 ft 145 kts 296°
2026-05-05 00:39 37.57731 -122.27098 1618 ft 130 kts 296°
2026-05-05 00:39 37.58147 -122.28088 1452 ft 126 kts 295°
2026-05-05 00:39 37.58556 -122.29058 1287 ft 125 kts 295°
2026-05-05 00:39 37.58957 -122.30011 1117 ft 123 kts 294°
2026-05-05 00:40 37.59356 -122.30960 943 ft 122 kts 294°
2026-05-05 00:40 37.59749 -122.31905 786 ft 121 kts 295°
2026-05-05 00:40 37.60149 -122.32842 648 ft 121 kts 295°
2026-05-05 00:40 37.60529 -122.33787 473 ft 121 kts 296°
2026-05-05 00:41 37.60923 -122.34719 265 ft 120 kts 297°
2026-05-05 00:41 37.61328 -122.35659 117 ft 123 kts 296°
2026-05-05 00:41 37.61717 -122.36585 21 ft 108 kts 297°
2026-05-05 00:41 37.62021 -122.37324 18 ft 80 kts 298°
2026-05-05 00:42 37.62248 -122.37849 21 ft 57 kts 298°
2026-05-05 00:42 37.62344 -122.38123 21 ft 29 kts 268°
2026-05-05 00:42 37.62299 -122.38240 22 ft 10 kts 224°
2026-05-05 00:42 37.62282 -122.38256 24 ft 1 kts 215°
2026-05-05 00:43 37.62281 -122.38257 24 ft 0 kts 215°
2026-05-05 00:43 37.62268 -122.38266 24 ft 4 kts 207°
2026-05-05 00:43 37.62222 -122.38285 21 ft 10 kts 194°
2026-05-05 00:44 37.62149 -122.38308 23 ft 11 kts 206°
2026-05-05 00:44 37.62126 -122.38401 21 ft 13 kts 289°
2026-05-05 00:44 37.62172 -122.38518 21 ft 16 kts 296°
2026-05-05 00:44 37.62176 -122.38636 19 ft 14 kts 220°
2026-05-05 00:45 37.62116 -122.38689 17 ft 7 kts 218°
2026-05-05 00:45 37.62111 -122.38696 19 ft 0 kts 227°